Time,TemperatureF,DewpointF,PressureIn,WindDirection,WindDirectionDegrees,WindSpeedMPH,WindSpeedGustMPH,Humidity,HourlyPrecipIn,Conditions,Clouds,dailyrainin,SoftwareType,DateUTC
2013-02-08 00:00:00,42.9,42.9,29.84,NNW,328,0.0,6.0,100,0.07,,---,0.26,VWS V14.01,2013-02-08 05:00:00,
2013-02-08 00:10:00,42.9,42.9,29.84,West,271,0.0,5.0,100,0.08,,---,0.02,VWS V14.01,2013-02-08 05:10:00,
2013-02-08 00:20:00,42.9,42.9,29.83,North,353,0.0,6.0,100,0.10,,---,0.04,VWS V14.01,2013-02-08 05:20:00,
2013-02-08 00:30:00,42.9,42.9,29.82,NNW,346,0.0,5.0,100,0.11,,---,0.06,VWS V14.01,2013-02-08 05:30:00,
2013-02-08 00:40:00,43.1,43.1,29.82,North,350,0.0,6.0,100,0.13,,---,0.08,VWS V14.01,2013-02-08 05:40:00,
2013-02-08 00:50:00,43.1,43.1,29.82,NNW,347,0.0,6.0,100,0.13,,---,0.10,VWS V14.01,2013-02-08 05:50:00,
2013-02-08 01:00:00,43.2,43.2,29.80,NW,326,2.0,10.0,100,0.14,,---,0.12,VWS V14.01,2013-02-08 06:00:00,
2013-02-08 01:10:00,43.2,43.2,29.80,NNW,337,6.0,10.0,100,0.14,,---,0.14,VWS V14.01,2013-02-08 06:10:00,
2013-02-08 01:20:00,43.2,43.2,29.78,NNW,346,6.0,9.0,100,0.14,,---,0.16,VWS V14.01,2013-02-08 06:20:00,
2013-02-08 01:30:00,43.2,43.2,29.76,NNW,337,0.0,8.0,100,0.15,,---,0.19,VWS V14.01,2013-02-08 06:30:00,
2013-02-08 01:40:00,43.3,43.3,29.76,West,268,3.0,10.0,100,0.15,,---,0.21,VWS V14.01,2013-02-08 06:40:00,
2013-02-08 01:50:00,43.3,43.3,29.75,North,353,5.0,8.0,100,0.15,,---,0.23,VWS V14.01,2013-02-08 06:50:00,
2013-02-08 02:00:00,43.2,43.2,29.75,NW,313,5.0,7.0,100,0.15,,---,0.25,VWS V14.01,2013-02-08 07:00:00,
2013-02-08 02:10:00,43.2,43.2,29.75,NNW,339,0.0,11.0,100,0.14,,---,0.26,VWS V14.01,2013-02-08 07:10:00,
2013-02-08 02:20:00,43.2,43.2,29.74,NNW,342,5.0,7.0,100,0.14,,---,0.28,VWS V14.01,2013-02-08 07:20:00,
2013-02-08 02:30:00,43.2,43.2,29.74,WNW,299,3.0,6.0,100,0.15,,---,0.31,VWS V14.01,2013-02-08 07:30:00,
2013-02-08 02:40:00,43.1,43.1,29.74,NNW,342,2.0,11.0,100,0.14,,---,0.33,VWS V14.01,2013-02-08 07:40:00,
2013-02-08 02:50:00,43.1,43.1,29.73,NNW,337,3.0,7.0,100,0.15,,---,0.36,VWS V14.01,2013-02-08 07:50:00,
2013-02-08 03:00:00,42.9,42.9,29.72,NW,315,0.0,9.0,100,0.17,,---,0.40,VWS V14.01,2013-02-08 08:00:00,
2013-02-08 03:10:00,42.8,42.8,29.72,NNW,342,1.0,12.0,100,0.18,,---,0.43,VWS V14.01,2013-02-08 08:10:00,
2013-02-08 03:20:00,42.6,42.6,29.71,NNW,336,7.0,14.0,100,0.20,,---,0.46,VWS V14.01,2013-02-08 08:20:00,
2013-02-08 03:30:00,42.3,42.3,29.70,NNW,329,3.0,16.0,100,0.20,,---,0.48,VWS V14.01,2013-02-08 08:30:00,
2013-02-08 03:40:00,42.2,42.2,29.70,NNW,347,7.0,18.0,100,0.17,,---,0.48,VWS V14.01,2013-02-08 08:40:00,
2013-02-08 03:50:00,42.1,42.1,29.69,West,275,5.0,12.0,100,0.16,,---,0.49,VWS V14.01,2013-02-08 08:50:00,
2013-02-08 04:00:00,41.9,41.9,29.68,NNW,330,3.0,11.0,100,0.14,,---,0.50,VWS V14.01,2013-02-08 09:00:00,
2013-02-08 04:10:00,41.8,41.8,29.68,North,350,3.0,12.0,100,0.11,,---,0.51,VWS V14.01,2013-02-08 09:10:00,
2013-02-08 04:20:00,41.8,41.8,29.68,NW,306,3.0,8.0,100,0.08,,---,0.51,VWS V14.01,2013-02-08 09:20:00,
2013-02-08 04:30:00,41.6,41.6,29.66,North,357,2.0,12.0,100,0.06,,---,0.52,VWS V14.01,2013-02-08 09:30:00,
2013-02-08 04:40:00,41.8,41.8,29.66,NW,312,4.0,11.0,100,0.04,,---,0.52,VWS V14.01,2013-02-08 09:40:00,
2013-02-08 04:50:00,41.8,41.8,29.66,North,350,4.0,11.0,100,0.05,,---,0.53,VWS V14.01,2013-02-08 09:50:00,
2013-02-08 05:00:00,41.8,41.8,29.65,NNW,339,6.0,11.0,100,0.04,,---,0.53,VWS V14.01,2013-02-08 10:00:00,
2013-02-08 05:10:00,41.8,41.8,29.65,NNW,328,7.0,13.0,100,0.03,,---,0.53,VWS V14.01,2013-02-08 10:10:00,
2013-02-08 05:20:00,41.8,41.8,29.66,West,278,5.0,10.0,100,0.02,,---,0.53,VWS V14.01,2013-02-08 10:20:00,
2013-02-08 05:30:00,41.8,41.8,29.66,WNW,289,3.0,17.0,100,0.03,,---,0.54,VWS V14.01,2013-02-08 10:30:00,
2013-02-08 05:40:00,41.6,41.6,29.66,West,261,2.0,10.0,100,0.02,,---,0.54,VWS V14.01,2013-02-08 10:40:00,
2013-02-08 05:50:00,41.5,41.5,29.65,NW,308,0.0,14.0,100,0.02,,---,0.54,VWS V14.01,2013-02-08 10:50:00,
2013-02-08 06:00:00,41.5,41.5,29.65,NW,323,5.0,10.0,100,0.01,,---,0.54,VWS V14.01,2013-02-08 11:00:00,
2013-02-08 06:10:00,41.3,41.3,29.65,WNW,284,3.0,12.0,100,0.01,,---,0.54,VWS V14.01,2013-02-08 11:10:00,
2013-02-08 06:20:00,41.3,41.3,29.66,NNW,336,5.0,7.0,100,0.01,,---,0.54,VWS V14.01,2013-02-08 11:20:00,
2013-02-08 06:30:00,41.3,41.3,29.66,WNW,282,4.0,10.0,100,0.01,,---,0.54,VWS V14.01,2013-02-08 11:30:00,
2013-02-08 06:40:00,41.2,41.2,29.66,NNW,332,4.0,11.0,100,0.00,,---,0.54,VWS V14.01,2013-02-08 11:40:00,
2013-02-08 06:50:00,41.1,41.1,29.66,West,263,1.0,10.0,100,0.00,,---,0.54,VWS V14.01,2013-02-08 11:50:00,
2013-02-08 07:00:00,41.1,41.1,29.66,West,265,3.0,11.0,100,0.00,,---,0.54,VWS V14.01,2013-02-08 12:00:00,
2013-02-08 07:10:00,40.9,40.9,29.66,WSW,253,0.0,10.0,100,0.00,,---,0.54,VWS V14.01,2013-02-08 12:10:00,
2013-02-08 07:20:00,40.8,40.8,29.66,West,263,4.0,9.0,100,0.00,,---,0.54,VWS V14.01,2013-02-08 12:20:00,
2013-02-08 07:30:00,40.8,40.8,29.67,NW,309,4.0,6.0,100,0.00,,---,0.54,VWS V14.01,2013-02-08 12:30:00,
2013-02-08 07:40:00,40.8,40.8,29.67,WSW,250,0.0,5.0,100,0.00,,---,0.54,VWS V14.01,2013-02-08 12:40:00,
2013-02-08 07:50:00,40.6,40.6,29.68,West,274,0.0,8.0,100,0.00,,---,0.54,VWS V14.01,2013-02-08 12:50:00,
2013-02-08 08:00:00,40.6,40.6,29.68,West,261,2.0,8.0,100,0.00,,---,0.54,VWS V14.01,2013-02-08 13:00:00,
2013-02-08 08:10:00,40.3,40.3,29.68,West,277,2.0,12.0,100,0.00,,---,0.54,VWS V14.01,2013-02-08 13:10:00,
2013-02-08 08:20:00,39.8,39.8,29.69,West,261,4.0,11.0,100,0.00,,---,0.54,VWS V14.01,2013-02-08 13:20:00,
2013-02-08 08:30:00,39.5,39.5,29.69,WNW,295,0.0,8.0,100,0.00,,---,0.54,VWS V14.01,2013-02-08 13:30:00,
2013-02-08 08:40:00,39.5,39.5,29.69,NNW,347,7.0,9.0,100,0.00,,---,0.54,VWS V14.01,2013-02-08 13:40:00,
2013-02-08 08:50:00,39.2,39.2,29.70,NW,319,0.0,11.0,100,0.00,,---,0.54,VWS V14.01,2013-02-08 13:50:00,
2013-02-08 09:00:00,39.1,39.1,29.70,West,268,0.0,6.0,100,0.00,,---,0.54,VWS V14.01,2013-02-08 14:00:00,
2013-02-08 09:10:00,39.2,39.2,29.70,North,352,6.0,6.0,100,0.00,,---,0.54,VWS V14.01,2013-02-08 14:10:00,
2013-02-08 09:20:00,39.2,39.2,29.69,WNW,294,2.0,11.0,100,0.00,,---,0.54,VWS V14.01,2013-02-08 14:20:00,
2013-02-08 09:30:00,39.3,39.3,29.70,West,267,2.0,6.0,100,0.00,,---,0.54,VWS V14.01,2013-02-08 14:30:00,
2013-02-08 09:40:00,39.3,39.3,29.70,West,280,2.0,7.0,100,0.00,,---,0.54,VWS V14.01,2013-02-08 14:40:00,
2013-02-08 09:50:00,39.5,39.5,29.70,NW,326,3.0,9.0,100,0.00,,---,0.54,VWS V14.01,2013-02-08 14:50:00,
2013-02-08 10:00:00,39.6,39.6,29.70,NNW,333,2.0,9.0,100,0.00,,---,0.54,VWS V14.01,2013-02-08 15:00:00,
2013-02-08 10:10:00,39.9,39.9,29.70,WNW,282,4.0,8.0,100,0.00,,---,0.54,VWS V14.01,2013-02-08 15:10:00,
2013-02-08 10:20:00,40.5,40.5,29.71,WSW,257,6.0,6.0,100,0.00,,---,0.54,VWS V14.01,2013-02-08 15:20:00,
2013-02-08 10:30:00,40.5,40.5,29.72,West,260,3.0,10.0,100,0.00,,---,0.54,VWS V14.01,2013-02-08 15:30:00,
2013-02-08 10:40:00,40.8,40.8,29.72,WNW,287,0.0,10.0,100,0.00,,---,0.54,VWS V14.01,2013-02-08 15:40:00,
2013-02-08 10:50:00,41.1,41.1,29.72,WSW,258,5.0,7.0,100,0.00,,---,0.54,VWS V14.01,2013-02-08 15:50:00,
2013-02-08 11:00:00,41.8,41.8,29.72,WSW,241,0.0,9.0,100,0.00,,---,0.54,VWS V14.01,2013-02-08 16:00:00,
2013-02-08 11:10:00,42.1,42.1,29.72,WSW,244,3.0,10.0,100,0.00,,---,0.54,VWS V14.01,2013-02-08 16:10:00,
2013-02-08 11:20:00,42.8,42.8,29.72,NNW,347,0.0,8.0,100,0.00,,---,0.54,VWS V14.01,2013-02-08 16:20:00,
2013-02-08 11:30:00,43.8,43.8,29.71,West,261,0.0,7.0,100,0.00,,---,0.54,VWS V14.01,2013-02-08 16:30:00,
2013-02-08 11:40:00,44.6,44.6,29.71,NW,306,0.0,6.0,100,0.00,,---,0.54,VWS V14.01,2013-02-08 16:40:00,
2013-02-08 11:50:00,45.5,45.5,29.71,WNW,292,0.0,6.0,100,0.00,,---,0.54,VWS V14.01,2013-02-08 16:50:00,
2013-02-08 12:00:00,46.2,45.4,29.71,West,260,0.0,8.0,97,0.00,,---,0.54,VWS V14.01,2013-02-08 17:00:00,
2013-02-08 12:10:00,46.4,45.3,29.71,West,260,0.0,10.0,96,0.00,,---,0.54,VWS V14.01,2013-02-08 17:10:00,
2013-02-08 12:20:00,47.0,45.9,29.70,West,270,2.0,8.0,96,0.00,,---,0.54,VWS V14.01,2013-02-08 17:20:00,
2013-02-08 12:30:00,47.9,46.3,29.69,WSW,241,6.0,6.0,94,0.00,,---,0.54,VWS V14.01,2013-02-08 17:30:00,
2013-02-08 12:40:00,48.3,46.4,29.69,West,264,0.0,6.0,93,0.00,,---,0.54,VWS V14.01,2013-02-08 17:40:00,
2013-02-08 12:50:00,49.1,46.6,29.68,West,275,2.0,6.0,91,0.00,,---,0.54,VWS V14.01,2013-02-08 17:50:00,
2013-02-08 13:00:00,49.8,46.7,29.68,WSW,253,0.0,6.0,89,0.00,,---,0.54,VWS V14.01,2013-02-08 18:00:00,
2013-02-08 13:10:00,50.1,47.3,29.68,WSW,257,0.0,5.0,90,0.00,,---,0.54,VWS V14.01,2013-02-08 18:10:00,
2013-02-08 13:20:00,51.3,47.9,29.68,West,274,0.0,6.0,88,0.00,,---,0.54,VWS V14.01,2013-02-08 18:20:00,
2013-02-08 13:30:00,51.3,47.6,29.67,West,272,5.0,6.0,87,0.00,,---,0.54,VWS V14.01,2013-02-08 18:30:00,
2013-02-08 13:40:00,51.6,48.2,29.67,WSW,256,0.0,5.0,88,0.00,,---,0.54,VWS V14.01,2013-02-08 18:40:00,
2013-02-08 13:50:00,52.5,48.8,29.67,SW,222,0.0,6.0,87,0.00,,---,0.54,VWS V14.01,2013-02-08 18:50:00,
2013-02-08 14:00:00,52.9,48.8,29.67,South,184,5.0,6.0,86,0.00,,---,0.54,VWS V14.01,2013-02-08 19:00:00,
2013-02-08 14:10:00,53.6,48.9,29.67,South,175,0.0,6.0,84,0.00,,---,0.54,VWS V14.01,2013-02-08 19:10:00,
2013-02-08 14:20:00,54.1,48.7,29.67,WSW,257,0.0,7.0,82,0.00,,---,0.54,VWS V14.01,2013-02-08 19:20:00,
2013-02-08 14:30:00,54.7,49.3,29.67,WSW,258,0.0,6.0,82,0.00,,---,0.54,VWS V14.01,2013-02-08 19:30:00,
2013-02-08 14:40:00,54.8,50.1,29.67,West,270,4.0,7.0,84,0.00,,---,0.54,VWS V14.01,2013-02-08 19:40:00,
2013-02-08 14:50:00,54.7,49.7,29.67,SW,236,0.0,11.0,83,0.00,,---,0.54,VWS V14.01,2013-02-08 19:50:00,
2013-02-08 15:00:00,55.0,49.6,29.66,WSW,244,0.0,7.0,82,0.00,,---,0.54,VWS V14.01,2013-02-08 20:00:00,
2013-02-08 15:10:00,55.4,49.7,29.66,West,265,2.0,5.0,81,0.00,,---,0.54,VWS V14.01,2013-02-08 20:10:00,
2013-02-08 15:20:00,55.0,49.3,29.66,West,270,0.0,8.0,81,0.00,,---,0.54,VWS V14.01,2013-02-08 20:20:00,
2013-02-08 15:30:00,55.1,50.0,29.67,West,274,0.0,6.0,83,0.00,,---,0.54,VWS V14.01,2013-02-08 20:30:00,
2013-02-08 15:40:00,54.8,50.4,29.67,WNW,284,0.0,11.0,85,0.00,,---,0.54,VWS V14.01,2013-02-08 20:40:00,
2013-02-08 15:50:00,54.5,50.4,29.67,SW,223,0.0,5.0,86,0.00,,---,0.54,VWS V14.01,2013-02-08 20:50:00,
2013-02-08 16:00:00,54.4,50.0,29.67,SW,233,1.0,2.0,85,0.00,,---,0.54,VWS V14.01,2013-02-08 21:00:00,
2013-02-08 16:10:00,54.2,49.8,29.67,SW,223,0.0,3.0,85,0.00,,---,0.54,VWS V14.01,2013-02-08 21:10:00,
2013-02-08 16:20:00,54.1,49.7,29.67,West,274,0.0,8.0,85,0.00,,---,0.54,VWS V14.01,2013-02-08 21:20:00,
2013-02-08 16:30:00,54.2,49.8,29.67,SW,220,2.0,7.0,85,0.00,,---,0.54,VWS V14.01,2013-02-08 21:30:00,
2013-02-08 16:40:00,54.1,49.7,29.67,West,274,0.0,5.0,85,0.00,,---,0.54,VWS V14.01,2013-02-08 21:40:00,
2013-02-08 16:50:00,54.1,49.1,29.68,WSW,239,0.0,8.0,83,0.00,,---,0.54,VWS V14.01,2013-02-08 21:50:00,
2013-02-08 17:00:00,53.8,49.7,29.68,SW,230,3.0,3.0,86,0.00,,---,0.54,VWS V14.01,2013-02-08 22:00:00,
2013-02-08 17:10:00,53.6,49.2,29.68,West,267,3.0,9.0,85,0.00,,---,0.54,VWS V14.01,2013-02-08 22:10:00,
2013-02-08 17:20:00,53.5,49.1,29.69,SSE,150,0.0,10.0,85,0.00,,---,0.54,VWS V14.01,2013-02-08 22:20:00,
2013-02-08 17:30:00,53.1,49.3,29.69,ESE,123,0.0,5.0,87,0.00,,---,0.54,VWS V14.01,2013-02-08 22:30:00,
2013-02-08 17:40:00,52.9,49.1,29.69,SW,215,0.0,3.0,87,0.00,,---,0.54,VWS V14.01,2013-02-08 22:40:00,
2013-02-08 17:50:00,52.6,49.2,29.70,SE,138,0.0,0.0,88,0.00,,---,0.54,VWS V14.01,2013-02-08 22:50:00,
2013-02-08 18:00:00,52.2,49.1,29.70,SSE,157,0.0,0.0,89,0.00,,---,0.54,VWS V14.01,2013-02-08 23:00:00,
2013-02-08 18:10:00,51.7,48.9,29.70,South,179,0.0,0.0,90,0.00,,---,0.54,VWS V14.01,2013-02-08 23:10:00,
2013-02-08 18:20:00,51.6,49.1,29.71,South,181,0.0,0.0,91,0.00,,---,0.54,VWS V14.01,2013-02-08 23:20:00,
2013-02-08 18:30:00,51.1,48.6,29.71,South,186,0.0,0.0,91,0.00,,---,0.54,VWS V14.01,2013-02-08 23:30:00,
2013-02-08 18:40:00,51.3,48.8,29.71,WSW,248,0.0,0.0,91,0.00,,---,0.54,VWS V14.01,2013-02-08 23:40:00,
2013-02-08 18:50:00,51.1,48.9,29.72,WSW,248,0.0,0.0,92,0.00,,---,0.54,VWS V14.01,2013-02-08 23:50:00,
2013-02-08 19:00:00,50.8,48.8,29.73,SW,222,0.0,4.0,93,0.00,,---,0.54,VWS V14.01,2013-02-09 00:00:00,
2013-02-08 19:10:00,50.8,48.3,29.73,West,260,3.0,7.0,91,0.00,,---,0.54,VWS V14.01,2013-02-09 00:10:00,
2013-02-08 19:20:00,51.4,46.4,29.74,West,271,4.0,8.0,83,0.00,,---,0.54,VWS V14.01,2013-02-09 00:20:00,
2013-02-08 19:30:00,52.0,45.7,29.75,West,271,1.0,12.0,79,0.00,,---,0.54,VWS V14.01,2013-02-09 00:30:00,
2013-02-08 19:40:00,51.6,43.6,29.75,West,275,0.0,11.0,74,0.00,,---,0.54,VWS V14.01,2013-02-09 00:40:00,
2013-02-08 19:50:00,50.7,39.4,29.77,WNW,282,2.0,14.0,65,0.00,,---,0.54,VWS V14.01,2013-02-09 00:50:00,
2013-02-08 20:00:00,49.8,38.5,29.78,WSW,258,3.0,14.0,65,0.00,,---,0.54,VWS V14.01,2013-02-09 01:00:00,
2013-02-08 20:10:00,49.1,38.2,29.78,NW,308,0.0,14.0,66,0.00,,---,0.54,VWS V14.01,2013-02-09 01:10:00,
2013-02-08 20:20:00,48.6,37.8,29.79,SW,234,10.0,12.0,66,0.00,,---,0.54,VWS V14.01,2013-02-09 01:20:00,
2013-02-08 20:30:00,48.0,37.2,29.80,NW,312,13.0,14.0,66,0.00,,---,0.54,VWS V14.01,2013-02-09 01:30:00,
2013-02-08 20:40:00,47.4,37.0,29.80,WSW,254,1.0,13.0,67,0.00,,---,0.54,VWS V14.01,2013-02-09 01:40:00,
2013-02-08 20:50:00,46.7,37.1,29.82,WNW,288,5.0,8.0,69,0.00,,---,0.54,VWS V14.01,2013-02-09 01:50:00,
2013-02-08 21:00:00,46.2,36.6,29.83,WSW,241,3.0,8.0,69,0.00,,---,0.54,VWS V14.01,2013-02-09 02:00:00,
2013-02-08 21:10:00,46.0,35.7,29.83,West,270,1.0,17.0,67,0.00,,---,0.54,VWS V14.01,2013-02-09 02:10:00,
2013-02-08 21:20:00,45.7,35.8,29.84,WNW,288,2.0,12.0,68,0.00,,---,0.54,VWS V14.01,2013-02-09 02:20:00,
2013-02-08 21:30:00,45.2,35.3,29.84,West,265,0.0,16.0,68,0.00,,---,0.54,VWS V14.01,2013-02-09 02:30:00,
2013-02-08 21:40:00,44.9,35.0,29.84,West,261,6.0,17.0,68,0.00,,---,0.54,VWS V14.01,2013-02-09 02:40:00,
2013-02-08 21:50:00,44.8,34.5,29.84,WSW,248,5.0,13.0,67,0.00,,---,0.54,VWS V14.01,2013-02-09 02:50:00,
2013-02-08 22:00:00,44.6,34.3,29.86,WSW,248,6.0,14.0,67,0.00,,---,0.54,VWS V14.01,2013-02-09 03:00:00,
2013-02-08 22:10:00,44.5,34.2,29.86,West,260,5.0,13.0,67,0.00,,---,0.54,VWS V14.01,2013-02-09 03:10:00,
2013-02-08 22:20:00,44.2,34.3,29.86,WSW,240,2.0,12.0,68,0.00,,---,0.54,VWS V14.01,2013-02-09 03:20:00,
2013-02-08 22:30:00,44.1,34.6,29.88,SW,232,5.0,10.0,69,0.00,,---,0.54,VWS V14.01,2013-02-09 03:30:00,
2013-02-08 22:40:00,43.6,34.5,29.88,West,265,11.0,13.0,70,0.00,,---,0.54,VWS V14.01,2013-02-09 03:40:00,
2013-02-08 22:50:00,43.6,34.5,29.88,WSW,250,3.0,16.0,70,0.00,,---,0.54,VWS V14.01,2013-02-09 03:50:00,
2013-02-08 23:00:00,43.3,34.2,29.88,West,261,3.0,11.0,70,0.00,,---,0.54,VWS V14.01,2013-02-09 04:00:00,
2013-02-08 23:10:00,43.1,34.7,29.88,WSW,254,3.0,10.0,72,0.00,,---,0.54,VWS V14.01,2013-02-09 04:10:00,
2013-02-08 23:20:00,42.9,34.2,29.88,WSW,254,6.0,11.0,71,0.00,,---,0.54,VWS V14.01,2013-02-09 04:20:00,
2013-02-08 23:30:00,42.8,34.1,29.89,West,267,3.0,8.0,71,0.00,,---,0.54,VWS V14.01,2013-02-09 04:30:00,
2013-02-08 23:40:00,42.5,34.1,29.89,WSW,237,0.0,6.0,72,0.00,,---,0.54,VWS V14.01,2013-02-09 04:40:00,
2013-02-08 23:50:00,42.2,34.5,29.89,WSW,250,0.0,6.0,74,0.00,,---,0.54,VWS V14.01,2013-02-09 04:50:00,